Погода в Петруни

Погода в Петруни : погода сейчас, прогноз погоды и архив. Всё, что Вы хотите узнать о погоде в Петруни!

Поиск расширенной информации на нашем сайте:

Полезная информация: котокафе

Другие новости

Новости СМИ2

Главная страница сайта

Новости сайта

03.07.2017

Напоминаем, что на нашем специализированном сайте Метеоцентр.Азия вы можете получить высокодетализированные автоматические прогнозы погоды по пунктам России, СНГ и мира в авиационном формате (включающие направление и скорость ветра, видимость, явления погоды, количество и форму облачности, нижнюю и верхнюю границу облачности).

Рекомендуем: Лада с пробегом купить авто с пробегом.

Погода в Петруни - сегодня

Время (UTC), дата Ветер
(°,м/с) 
Видим.   Явления Облачность Т
(°С)
Тd
(°С)
f(%) Тe
(°С)
Pmin
(гПа)
dP
(гПа)
Po
(мм)
O2
(г/м3)
Тmin Tmax R s Состояние
почвы
21 19.09.17 040 (СВ) 26000 м    ясно 
-0.5 -1.4 94 -2  1020.9  -0.7  760  307           
00 20.09.17 040 (СВ) 28000 м    10/10 1260 м 
[Sc]
-0.3 -1.2 94 -2  1020.7  -0.2  760  307           
03 20.09.17 040 (СВ) 30000 м    9/9 960 м 
[Sc]
+0.6 -0.5 92 -1  1021.2  0.5  760  306  -1.4         
06 20.09.17 030 (СВ) 35000 м    9/3 1000 м средняя 
[Sc|Ac As]
+4.3 +2 85 +3  1021.9  0.9  761  301           
09 20.09.17 020 (С) 40000 м    9/4 1000 м средняя 
[Sc|Ac As]
+8.2 +2.7 68 +7  1022.2  0.4  761  297           
12 20.09.17 100 (В) 45000 м    5/1 1000 м средняя 
[Sc|Ac lent]
+9.5 +3 64 +11  1023.4  1.2  762  296           
15 20.09.17 010 (С) 45000 м    3/0 средняя 
[Ac trans]
+2.4 +1.1 91 +1  1025  1.4  763  305    +10.3       
18 20.09.17 030 (СВ) 40000 м    ясно 
-0.5 -1.4 94 -1  1026.5  1.4  764  309           
21 20.09.17 020 (С) 0500 м  туман  ?/?  
-0.5 -0.8 98 -1  1027.4  0.9  765  309           
00 21.09.17 010 (С) 0700 м  туман  ?/?  
+0.1 -0.2 98 +1  1028.9  1.5  766  308           
03 21.09.17 280 (З) 24000 м  {туман}  10/10 120 м 
[St]
+0.6 +0.1 96 +1  1029.8  0.9  766  308  -1         
06 21.09.17 250 (З) 7000 м  слаб. морось{туман}  10/10 210 м 
[St]
+2.2 +1.2 93 +2  1030.2  0.5  767  306           
09 21.09.17 250 (З) 25000 м  {морось}  10/10 300 м 
[St]
+3.8 +2.3 90 +3  1030.5  0.3  767  305           
12 21.09.17 280 (З) 5000 м  слаб. морось  10/10 480 м 
[St]
+5.6 +4.7 94 +5  1031.1  0.6  767  302           
15 21.09.17 330 (СЗ) 26000 м  {морось}  10/10 450 м 
[St]
+4.6 +2.6 87 +3  1031.9  0.8  768  304    +6.1  0.4     
18 21.09.17 310 (СЗ) 25000 м  {морось}  9/4 300 м средняя, верхняя 
[St|Ac As|Ci fib]
+1.9 +1.1 94 +1  1033.3  1.3  769  308           
21 21.09.17 310 (СЗ) 27000 м    5/0 средняя, верхняя 
[Ac As|Ci fib]
+0.2 -0.4 96 +1  1034.4  1.1  770  310           
00 22.09.17 310 (СЗ) 26000 м    9/0 средняя 
[Ac As]
+0.1 -0.5 96 +1  1035.3  0.9  771  310           
03 22.09.17 240 (ЮЗ) 30000 м    10/10 1380 м 
[Sc]
+1.3 +0.2 92 +1  1034.9  -0.4  770  309  -0.2         
06 22.09.17 270 (З) 25000 м    10/10 210 м 
[St]
+2.7 +1.9 94 +2  1034.2  -0.6  770  307           
09 22.09.17 310 (СЗ) 7000 м  слаб. морось  10/10 300 м 
[St]
+5.2 +4.3 94 +4  1034.1  -0.1  770  304           
12 22.09.17 360 (С) 35000 м  {морось}  8/8 1020 м 
[Sc]
+6.5 +2.9 78 +6  1034.5  0.4  770  303           
15 22.09.17 260 (З) 35000 м    9/0 средняя 
[Ac As]
+4.5 +3 90 +5  1034.3  -0.2  770  305    +7  0.0     
18 22.09.17 270 (З) 28000 м  в посл. час морось  10/10 800 м 
[Sc]
+4.5 +3.3 92 +4  1034.3  770  305           
21 22.09.17 250 (З) 30000 м    10/10 1080 м 
[Sc]
+3.3 +1.8 90 +3  1033.9  -0.4  770  306           
Время (UTC), дата Ветер
(°,м/с) 
Видим.   Явления Облачность Т
(°С)
Тd
(°С)
f(%) Тe
(°С)
Pmin
(гПа)
dP
(гПа)
Po
(мм)
O2
(г/м3)
Тmin Tmax R s Состояние
почвы

Для получения пояснительной информации подведите курсор к названию столбца.

ПОГОДА в Петруни - архив

Всё, что Вы хотите узнать о погоде в Петруни - удобно и подробно!

Выберите нужную дату (начиная с 1 января 2015* года) и нажмите кнопку "Найти".
Будут отображены архивные сводки погоды по пункту Петрунь, начиная с указанной даты.


Отображать данные в формате CSV (для использования в таблицах Excel)


Внимание! Наш архив погоды предназначен исключительно для личного некоммерческого использования в познавательных целях. Если Вам необходимы официальные справки о состоянии погоды (для производственных, юридических, коммерческих и т.п. целей), обращайтесь в органы Росгидромета.

*Примечание: данная дата относится к архиву по метеостанциям СССР (Россия, СНГ, Балтия).
Архив по метеостанциям Зарубежной Европы и Азии (кроме Китая) хранится 10 дней, по другим регионам земного шара (Китай, Африка, Америка, Австралия, Океания) - 1 день.

Петрунь - район местоположения метеостанции


Название, широта, долгота, высота метеостанции:
Петрунь 66.5°ш. 60.8°д. 58 м над ур. моря [Российская Федерация]

Дополнительная информация

В oтличие oт бoльшинства пoгoдных сайтoв мы публикуем пoдрoбную метеoинфoрмацию в детальнoм прoфессиoнальнoм фoрмате.

Характеристики температуры и влажнoсти вoздуха измеряются на высoте 2 м в тени вдали oт зданий и деревьев.
Скoрoсть ветра измеряется на высoте 10 м (на урoвне рoста челoвека скoрoсть ветра ниже в 1.5-2 раза). Если метеoстанция нахoдится в гoрoде или в лесу, тo скoрoсть ветра занижена на 2-4 м/с пo сравнению с oткрытым местoм. Скoрoсть ветра над акватoриями крупных рек и oзёр, а также на вершинах хoлмoв на 2-5 м/с выше, чем в oбычных услoвиях.
Атмoсфернoе давление в разных тoчках местнoсти мoжет значительнo oтличаться oт давления на метеoстанции, в зависимoсти oт услoвий рельефа (при пoдъёме на 10 м давление пoнижается примернo на 1 мм рт.ст.).